User: anonymous   Login
Location: Cuiry
(49.3858°N, 3.7708°E)
Time: 12:31:50
(UTC+00:00)
Language:

USA 238 DEB - Orbit

View from above orbital plane
View from above orbital plane
View from above satellite
View from above satellite

Ground track
Ground track

The orbit is defined by the following mean orbital elements,

1 38773U 12048P   26010.74396602 0.00000000  00000-0  00000-0 0    02
2 38773  63.4204 250.4405 0296851 358.4712   1.5287 13.40991696    01
Epoch (UTC): 10 January 2026 17:51:18
Eccentricity: 0.0296851
inclination: 63.4204°
perigee height: 883 km
apogee height: 1328 km
right ascension of ascending node: 250.4405°
argument of perigee: 358.4712°
revolutions per day: 13.40991696
mean anomaly at epoch: 1.5287°

The dashed part of the orbit path shows where the satellite is in the earth's shadow,  

DLR